| time (UTC) | temp C | wind direction | speed KPH | gust KPH | rain 1hr cm | rain 24hr cm | rain mn cm | humidity % | barometer mb |
| 20260502130503 | 9 | 302 | 3.2 | 14.5 | 0.00 | 0.10 | 0.08 | 63 | 1014.2 |
| 20260502123504 | 8 | 329 | 4.8 | 14.5 | 0.00 | 0.10 | 0.08 | 63 | 1014.3 |
| 20260502123004 | 8 | 317 | 6.4 | 14.5 | 0.00 | 0.10 | 0.08 | 63 | 1014.3 |
| 20260502122506 | 9 | 309 | 3.2 | 12.9 | 0.00 | 0.10 | 0.08 | 63 | 1014.3 |
| 20260502122008 | 9 | 293 | 4.8 | 12.9 | 0.00 | 0.10 | 0.08 | 64 | 1014.1 |
| 20260502121513 | 9 | 348 | 1.6 | 11.3 | 0.00 | 0.10 | 0.08 | 65 | 1014.1 |
| 20260502121005 | 8 | 234 | 1.6 | 14.5 | 0.00 | 0.10 | 0.08 | 65 | 1014.2 |
| 20260502120504 | 8 | 225 | 1.6 | 14.5 | 0.00 | 0.10 | 0.08 | 65 | 1014.1 |
| 20260502115504 | 8 | 342 | 3.2 | 12.9 | 0.00 | 0.10 | 0.08 | 65 | 1014.2 |
| 20260502115008 | 8 | 352 | 3.2 | 12.9 | 0.00 | 0.10 | 0.08 | 64 | 1014.0 |
| 20260502114511 | 9 | 331 | 3.2 | 9.7 | 0.00 | 0.10 | 0.08 | 63 | 1014.0 |
| 20260502114004 | 9 | 352 | 3.2 | 12.9 | 0.00 | 0.10 | 0.08 | 63 | 1014.1 |
| 20260502113504 | 9 | 298 | 4.8 | 12.9 | 0.00 | 0.10 | 0.08 | 63 | 1014.1 |
| 20260502113010 | 9 | 234 | 1.6 | 6.4 | 0.00 | 0.10 | 0.08 | 63 | 1014.1 |
| 20260502112504 | 9 | 342 | 1.6 | 4.8 | 0.00 | 0.10 | 0.08 | 63 | 1014.2 |
| 20260502112006 | 9 | 227 | 0.0 | 12.9 | 0.00 | 0.10 | 0.08 | 63 | 1014.1 |
| 20260502111508 | 9 | 338 | 3.2 | 22.5 | 0.00 | 0.10 | 0.08 | 62 | 1014.1 |
| 20260502111006 | 9 | 260 | 6.4 | 22.5 | 0.00 | 0.10 | 0.08 | 62 | 1014.1 |
| 20260502110507 | 9 | 5 | 3.2 | 12.9 | 0.00 | 0.10 | 0.08 | 63 | 1014.1 |
| 20260502110012 | 9 | 262 | 3.2 | 22.5 | 0.00 | 0.10 | 0.08 | 63 | 1014.0 |
| 20260502105506 | 9 | 352 | 3.2 | 22.5 | 0.00 | 0.10 | 0.08 | 63 | 1014.0 |
| 20260502105009 | 9 | 350 | 4.8 | 22.5 | 0.00 | 0.10 | 0.08 | 63 | 1014.0 |
| 20260502104517 | 9 | 345 | 3.2 | 14.5 | 0.00 | 0.10 | 0.08 | 62 | 1013.7 |
| 20260502104005 | 9 | 272 | 3.2 | 14.5 | 0.00 | 0.10 | 0.08 | 62 | 1013.7 |
| 20260502103506 | 9 | 352 | 3.2 | 11.3 | 0.00 | 0.10 | 0.08 | 62 | 1013.5 |
| 20260502103013 | 9 | 277 | 3.2 | 6.4 | 0.00 | 0.10 | 0.08 | 62 | 1013.5 |
| 20260502102508 | 9 | 278 | 1.6 | 8.0 | 0.00 | 0.10 | 0.08 | 62 | 1013.6 |
| 20260502102009 | 10 | 334 | 1.6 | 8.0 | 0.00 | 0.10 | 0.08 | 62 | 1013.6 |
| 20260502101515 | 10 | 22 | 1.6 | 8.0 | 0.00 | 0.10 | 0.08 | 62 | 1013.4 |
| 20260502101007 | 10 | 304 | 3.2 | 8.0 | 0.00 | 0.10 | 0.08 | 62 | 1013.3 |
| 20260502100506 | 10 | 81 | 3.2 | 8.0 | 0.00 | 0.10 | 0.08 | 62 | 1013.3 |
| 20260502091518 | 11 | 333 | 3.2 | 8.0 | 0.00 | 0.10 | 0.08 | 61 | 1012.6 |
| 20260502091015 | 11 | 311 | 1.6 | 8.0 | 0.00 | 0.10 | 0.08 | 61 | 1012.6 |
| 20260502090503 | 11 | 328 | 1.6 | 8.0 | 0.00 | 0.10 | 0.08 | 62 | 1012.6 |
| 20260502071504 | 12 | 350 | 0.0 | 6.4 | 0.00 | 0.10 | 0.08 | 69 | 1012.3 |
| 20260502071002 | 12 | 20 | 0.0 | 3.2 | 0.00 | 0.10 | 0.08 | 69 | 1012.3 |
| 20260502070502 | 12 | 20 | 0.0 | 3.2 | 0.00 | 0.10 | 0.08 | 68 | 1012.4 |
| 20260502070006 | 12 | 352 | 0.0 | 3.2 | 0.00 | 0.10 | 0.08 | 68 | 1012.4 |
| 20260502065503 | 12 | 348 | 0.0 | 3.2 | 0.00 | 0.10 | 0.08 | 68 | 1012.3 |
| 20260502065005 | 12 | 319 | 0.0 | 3.2 | 0.00 | 0.10 | 0.08 | 68 | 1012.3 |
| 20260502064515 | 12 | 24 | 0.0 | 6.4 | 0.00 | 0.10 | 0.08 | 68 | 1012.3 |
| 20260502064007 | 12 | 338 | 0.0 | 4.8 | 0.00 | 0.10 | 0.08 | 68 | 1012.3 |
| 20260502063506 | 12 | 275 | 0.0 | 4.8 | 0.00 | 0.10 | 0.08 | 68 | 1012.2 |
| 20260502063018 | 12 | 59 | 0.0 | 8.0 | 0.00 | 0.10 | 0.08 | 68 | 1012.2 |
| 20260502062514 | 12 | 360 | 3.2 | 12.9 | 0.00 | 0.10 | 0.08 | 68 | 1012.1 |
| 20260502062011 | 12 | 19 | 3.2 | 12.9 | 0.00 | 0.10 | 0.08 | 69 | 1012.2 |
| 20260502061518 | 12 | 258 | 1.6 | 8.0 | 0.00 | 0.10 | 0.08 | 70 | 1012.1 |
| 20260502061007 | 12 | 35 | 3.2 | 8.0 | 0.00 | 0.10 | 0.08 | 71 | 1012.1 |
| 20260502060503 | 12 | 315 | 1.6 | 4.8 | 0.00 | 0.10 | 0.08 | 72 | 1012.2 |
| 20260502060004 | 12 | 233 | 1.6 | 4.8 | 0.00 | 0.10 | 0.08 | 72 | 1012.5 |
| 20260502055504 | 12 | 65 | 0.0 | 9.7 | 0.00 | 0.10 | 0.08 | 74 | 1012.5 |
| 20260502055006 | 12 | 74 | 1.6 | 9.7 | 0.00 | 0.10 | 0.08 | 75 | 1012.5 |
| 20260502054507 | 12 | 42 | 0.0 | 4.8 | 0.00 | 0.10 | 0.08 | 76 | 1012.4 |
| 20260502054005 | 12 | 352 | 1.6 | 4.8 | 0.00 | 0.10 | 0.08 | 76 | 1012.5 |
| 20260502053503 | 11 | 13 | 1.6 | 3.2 | 0.00 | 0.10 | 0.08 | 80 | 1012.4 |
| 20260502053015 | 11 | 258 | 0.0 | 3.2 | 0.03 | 0.10 | 0.08 | 82 | 1012.6 |
| 20260502052510 | 11 | 352 | 0.0 | 3.2 | 0.03 | 0.10 | 0.08 | 83 | 1012.5 |
| 20260502052006 | 11 | 352 | 0.0 | 3.2 | 0.03 | 0.10 | 0.08 | 83 | 1012.6 |
| 20260502051519 | 11 | 334 | 0.0 | 3.2 | 0.03 | 0.10 | 0.08 | 83 | 1012.7 |
| 20260502051006 | 11 | 334 | 0.0 | 3.2 | 0.05 | 0.10 | 0.08 | 84 | 1012.7 |
| 20260502050508 | 11 | 334 | 0.0 | 3.2 | 0.05 | 0.10 | 0.08 | 84 | 1012.7 |
| 20260502050020 | 11 | 334 | 0.0 | 3.2 | 0.08 | 0.10 | 0.08 | 86 | 1012.8 |
| 20260502045506 | 11 | 334 | 0.0 | 3.2 | 0.10 | 0.10 | 0.08 | 87 | 1012.8 |
| 20260502045004 | 11 | 334 | 0.0 | 0.0 | 0.10 | 0.10 | 0.08 | 86 | 1012.8 |
| 20260502044504 | 11 | 334 | 0.0 | 0.0 | 0.10 | 0.10 | 0.08 | 86 | 1012.9 |
| 20260502044006 | 11 | 334 | 0.0 | 3.2 | 0.10 | 0.10 | 0.08 | 84 | 1012.9 |
| 20260502043502 | 11 | 334 | 0.0 | 3.2 | 0.10 | 0.10 | 0.08 | 84 | 1012.9 |
| 20260502043010 | 11 | 15 | 0.0 | 3.2 | 0.08 | 0.08 | 0.05 | 84 | 1013.1 |
| 20260502042507 | 12 | 279 | 0.0 | 1.6 | 0.08 | 0.08 | 0.05 | 83 | 1013.1 |
| 20260502042009 | 12 | 234 | 0.0 | 3.2 | 0.08 | 0.08 | 0.05 | 83 | 1013.1 |
| 20260502041518 | 12 | 269 | 0.0 | 3.2 | 0.08 | 0.08 | 0.05 | 82 | 1013.0 |
| 20260502041013 | 12 | 248 | 0.0 | 3.2 | 0.05 | 0.05 | 0.03 | 81 | 1012.8 |
| 20260502040507 | 12 | 248 | 0.0 | 3.2 | 0.05 | 0.05 | 0.03 | 79 | 1012.6 |
| 20260502040019 | 12 | 248 | 0.0 | 4.8 | 0.03 | 0.03 | 0.00 | 78 | 1012.4 |
| 20260502035506 | 12 | 165 | 1.6 | 4.8 | 0.00 | 0.00 | 0.00 | 74 | 1012.4 |
| 20260502035006 | 13 | 203 | 0.0 | 3.2 | 0.00 | 0.00 | 0.00 | 74 | 1012.2 |
| 20260502034522 | 13 | 198 | 0.0 | 3.2 | 0.00 | 0.00 | 0.00 | 73 | 1012.0 |
| 20260502034010 | 12 | 198 | 0.0 | 3.2 | 0.00 | 0.00 | 0.00 | 73 | 1011.9 |
| 20260502033506 | 12 | 188 | 0.0 | 3.2 | 0.00 | 0.00 | 0.00 | 72 | 1011.9 |
| 20260502033012 | 12 | 163 | 0.0 | 3.2 | 0.00 | 0.00 | 0.00 | 72 | 1011.9 |
| 20260502032504 | 13 | 163 | 0.0 | 3.2 | 0.00 | 0.00 | 0.00 | 71 | 1011.9 |
| 20260502032006 | 13 | 143 | 0.0 | 4.8 | 0.00 | 0.00 | 0.00 | 70 | 1011.7 |
| 20260502031510 | 13 | 135 | 0.0 | 4.8 | 0.00 | 0.00 | 0.00 | 69 | 1011.6 |
| 20260502031007 | 13 | 204 | 0.0 | 3.2 | 0.00 | 0.00 | 0.00 | 67 | 1011.6 |
| 20260502030508 | 13 | 196 | 0.0 | 3.2 | 0.00 | 0.00 | 0.00 | 66 | 1011.6 |
| 20260502030021 | 13 | 196 | 0.0 | 3.2 | 0.00 | 0.00 | 0.00 | 66 | 1011.5 |
| 20260502025507 | 13 | 205 | 0.0 | 4.8 | 0.00 | 0.00 | 0.00 | 66 | 1011.4 |
| 20260502025006 | 13 | 205 | 0.0 | 4.8 | 0.00 | 0.00 | 0.00 | 67 | 1011.3 |
| 20260502024519 | 13 | 140 | 0.0 | 4.8 | 0.00 | 0.00 | 0.00 | 67 | 1011.3 |
| 20260502024012 | 13 | 239 | 0.0 | 3.2 | 0.00 | 0.00 | 0.00 | 67 | 1011.5 |
| 20260502023510 | 13 | 63 | 0.0 | 3.2 | 0.00 | 0.00 | 0.00 | 67 | 1011.5 |
| 20260502023031 | 13 | 63 | 0.0 | 3.2 | 0.00 | 0.00 | 0.00 | 67 | 1011.5 |
| 20260502022506 | 13 | 63 | 0.0 | 3.2 | 0.00 | 0.00 | 0.00 | 66 | 1011.5 |
| 20260502022010 | 13 | 63 | 0.0 | 3.2 | 0.00 | 0.00 | 0.00 | 64 | 1011.5 |
| 20260502021508 | 13 | 190 | 0.0 | 3.2 | 0.00 | 0.00 | 0.00 | 63 | 1011.5 |
| 20260502021007 | 13 | 25 | 0.0 | 3.2 | 0.00 | 0.00 | 0.00 | 62 | 1011.6 |
| 20260502020507 | 13 | 25 | 0.0 | 1.6 | 0.00 | 0.00 | 0.00 | 61 | 1011.6 |
| 20260502020014 | 13 | 25 | 0.0 | 3.2 | 0.00 | 0.00 | 0.00 | 61 | 1011.5 |
| 20260502015507 | 13 | 25 | 0.0 | 3.2 | 0.00 | 0.00 | 0.00 | 60 | 1011.4 |
| 20260502015009 | 13 | 25 | 1.6 | 3.2 | 0.00 | 0.00 | 0.00 | 60 | 1011.4 |
| 20260502014517 | 13 | 51 | 0.0 | 6.4 | 0.00 | 0.00 | 0.00 | 60 | 1011.3 |
| 20260502014008 | 13 | 51 | 0.0 | 6.4 | 0.00 | 0.00 | 0.00 | 59 | 1011.2 |
| 20260502013506 | 13 | 248 | 0.0 | 3.2 | 0.00 | 0.00 | 0.00 | 59 | 1011.0 |
| 20260502013023 | 13 | 320 | 0.0 | 3.2 | 0.00 | 0.00 | 0.00 | 58 | 1010.9 |
| 20260502012507 | 14 | 342 | 0.0 | 3.2 | 0.00 | 0.00 | 0.00 | 57 | 1010.8 |
| 20260502012007 | 14 | 10 | 0.0 | 3.2 | 0.00 | 0.00 | 0.00 | 55 | 1010.7 |
| 20260502011524 | 14 | 360 | 0.0 | 3.2 | 0.00 | 0.00 | 0.00 | 54 | 1010.6 |
| 20260502011004 | 14 | 187 | 0.0 | 3.2 | 0.00 | 0.00 | 0.00 | 54 | 1010.5 |
| 20260502010511 | 15 | 196 | 0.0 | 3.2 | 0.00 | 0.00 | 0.00 | 52 | 1010.4 |
| 20260502010014 | 15 | 196 | 0.0 | 3.2 | 0.00 | 0.00 | 0.00 | 51 | 1010.4 |
| 20260502005507 | 15 | 234 | 0.0 | 4.8 | 0.00 | 0.00 | 0.00 | 51 | 1010.3 |
| 20260502005009 | 15 | 194 | 0.0 | 4.8 | 0.00 | 0.00 | 0.00 | 51 | 1010.2 |
| 20260502004518 | 15 | 219 | 0.0 | 3.2 | 0.00 | 0.00 | 0.00 | 51 | 1010.1 |
| 20260502004009 | 15 | 219 | 0.0 | 8.0 | 0.00 | 0.00 | 0.00 | 51 | 1010.0 |
| 20260502003507 | 15 | 190 | 0.0 | 8.0 | 0.00 | 0.00 | 0.00 | 51 | 1010.0 |
| 20260502003023 | 15 | 148 | 0.0 | 3.2 | 0.00 | 0.00 | 0.00 | 50 | 1010.0 |
| 20260502002510 | 15 | 148 | 0.0 | 3.2 | 0.00 | 0.00 | 0.00 | 50 | 1009.9 |
| 20260502002008 | 15 | 146 | 0.0 | 3.2 | 0.00 | 0.00 | 0.00 | 49 | 1010.1 |
| 20260502001525 | 15 | 112 | 0.0 | 3.2 | 0.00 | 0.00 | 0.00 | 49 | 1010.2 |
| 20260502001008 | 15 | 175 | 0.0 | 3.2 | 0.00 | 0.00 | 0.00 | 49 | 1010.2 |
| 20260502000511 | 15 | 175 | 0.0 | 3.2 | 0.00 | 0.00 | 0.00 | 49 | 1010.1 |
| 20260502000026 | 15 | 169 | 0.0 | 3.2 | 0.00 | 0.00 | 0.00 | 49 | 1010.1 |
| 20260501235508 | 16 | 169 | 0.0 | 3.2 | 0.00 | 0.00 | 0.00 | 48 | 1010.1 |
| 20260501235005 | 16 | 195 | 0.0 | 3.2 | 0.00 | 0.00 | 0.00 | 47 | 1010.1 |
| 20260501234516 | 16 | 194 | 0.0 | 6.4 | 0.00 | 0.00 | 0.00 | 47 | 1009.9 |
| 20260501234008 | 16 | 165 | 0.0 | 6.4 | 0.00 | 0.00 | 0.00 | 46 | 1009.8 |
| 20260501233507 | 16 | 207 | 0.0 | 3.2 | 0.00 | 0.00 | 0.00 | 45 | 1009.8 |
| 20260501233018 | 16 | 199 | 0.0 | 4.8 | 0.00 | 0.00 | 0.00 | 44 | 1009.7 |
| 20260501232507 | 17 | 259 | 0.0 | 4.8 | 0.00 | 0.00 | 0.00 | 44 | 1009.6 |
| 20260501232012 | 17 | 282 | 1.6 | 3.2 | 0.00 | 0.00 | 0.00 | 43 | 1009.6 |
| 20260501231524 | 17 | 29 | 0.0 | 3.2 | 0.00 | 0.00 | 0.00 | 43 | 1009.6 |
| 20260501231008 | 17 | 301 | 1.6 | 3.2 | 0.00 | 0.00 | 0.00 | 43 | 1009.8 |
| 20260501230511 | 17 | 198 | 0.0 | 3.2 | 0.00 | 0.00 | 0.00 | 43 | 1009.7 |
| 20260501230024 | 17 | 216 | 0.0 | 4.8 | 0.00 | 0.00 | 0.00 | 42 | 1009.8 |
| 20260501225510 | 17 | 40 | 0.0 | 6.4 | 0.00 | 0.00 | 0.00 | 43 | 1009.8 |
| 20260501225014 | 17 | 185 | 1.6 | 6.4 | 0.00 | 0.00 | 0.00 | 42 | 1009.8 |
| 20260501224537 | 17 | 258 | 1.6 | 8.0 | 0.00 | 0.00 | 0.00 | 40 | 1009.9 |
| 20260501224006 | 18 | 329 | 1.6 | 8.0 | 0.00 | 0.00 | 0.00 | 39 | 1009.9 |
| 20260501223507 | 18 | 220 | 1.6 | 8.0 | 0.00 | 0.00 | 0.00 | 38 | 1010.1 |
| 20260501223017 | 18 | 240 | 1.6 | 14.5 | 0.00 | 0.00 | 0.00 | 38 | 1010.1 |
| 20260501222507 | 18 | 265 | 3.2 | 14.5 | 0.00 | 0.00 | 0.00 | 38 | 1010.1 |
| 20260501222012 | 18 | 283 | 1.6 | 11.3 | 0.00 | 0.00 | 0.00 | 39 | 1010.1 |
| 20260501221523 | 18 | 192 | 1.6 | 11.3 | 0.00 | 0.00 | 0.00 | 39 | 1010.1 |
| 20260501221014 | 18 | 70 | 1.6 | 8.0 | 0.00 | 0.00 | 0.00 | 37 | 1010.2 |
| 20260501220509 | 18 | 219 | 1.6 | 11.3 | 0.00 | 0.00 | 0.00 | 40 | 1010.2 |
| 20260501220023 | 18 | 208 | 4.8 | 11.3 | 0.00 | 0.00 | 0.00 | 37 | 1010.2 |
| 20260501215510 | 18 | 238 | 3.2 | 8.0 | 0.00 | 0.00 | 0.00 | 37 | 1010.2 |
| 20260501215010 | 18 | 188 | 3.2 | 8.0 | 0.00 | 0.00 | 0.00 | 36 | 1010.3 |
| 20260501214526 | 18 | 200 | 1.6 | 12.9 | 0.00 | 0.00 | 0.00 | 37 | 1010.2 |
| 20260501214007 | 18 | 352 | 4.8 | 12.9 | 0.00 | 0.00 | 0.00 | 38 | 1010.3 |
| 20260501213510 | 18 | 235 | 3.2 | 12.9 | 0.00 | 0.00 | 0.00 | 36 | 1010.2 |
| 20260501213027 | 18 | 28 | 3.2 | 11.3 | 0.00 | 0.00 | 0.00 | 37 | 1010.3 |
| 20260501212507 | 18 | 117 | 1.6 | 11.3 | 0.00 | 0.00 | 0.00 | 37 | 1010.4 |
| 20260501212009 | 18 | 231 | 4.8 | 11.3 | 0.00 | 0.00 | 0.00 | 37 | 1010.4 |
| 20260501211521 | 19 | 227 | 1.6 | 9.7 | 0.00 | 0.00 | 0.00 | 38 | 1010.4 |
| 20260501211009 | 19 | 199 | 1.6 | 8.0 | 0.00 | 0.00 | 0.00 | 38 | 1010.3 |
| 20260501210509 | 19 | 30 | 3.2 | 11.3 | 0.00 | 0.00 | 0.00 | 38 | 1010.3 |
| 20260501210025 | 18 | 235 | 1.6 | 11.3 | 0.00 | 0.00 | 0.00 | 39 | 1010.2 |
| 20260501205513 | 18 | 227 | 3.2 | 9.7 | 0.00 | 0.00 | 0.00 | 36 | 1010.4 |
| 20260501205009 | 19 | 284 | 1.6 | 6.4 | 0.00 | 0.00 | 0.00 | 38 | 1010.3 |
| 20260501204526 | 18 | 233 | 1.6 | 12.9 | 0.00 | 0.00 | 0.00 | 38 | 1010.3 |
| 20260501204012 | 19 | 270 | 1.6 | 12.9 | 0.00 | 0.00 | 0.00 | 38 | 1010.6 |
| 20260501203509 | 19 | 278 | 1.6 | 9.7 | 0.00 | 0.00 | 0.00 | 38 | 1010.5 |
| 20260501203026 | 18 | 167 | 1.6 | 6.4 | 0.00 | 0.00 | 0.00 | 36 | 1010.7 |
| 20260501202511 | 18 | 229 | 1.6 | 19.3 | 0.00 | 0.00 | 0.00 | 37 | 1010.7 |
| 20260501202012 | 18 | 208 | 4.8 | 19.3 | 0.00 | 0.00 | 0.00 | 36 | 1010.9 |
| 20260501201518 | 18 | 211 | 3.2 | 11.3 | 0.00 | 0.00 | 0.00 | 35 | 1011.1 |
| 20260501201009 | 18 | 156 | 3.2 | 16.1 | 0.00 | 0.00 | 0.00 | 35 | 1011.1 |
| 20260501200516 | 18 | 346 | 3.2 | 16.1 | 0.00 | 0.00 | 0.00 | 34 | 1011.1 |
| 20260501200022 | 18 | 238 | 3.2 | 16.1 | 0.00 | 0.00 | 0.00 | 34 | 1011.1 |
| 20260501195510 | 18 | 192 | 4.8 | 12.9 | 0.00 | 0.00 | 0.00 | 35 | 1011.4 |
| 20260501195010 | 18 | 200 | 4.8 | 12.9 | 0.00 | 0.00 | 0.00 | 35 | 1011.6 |
| 20260501194526 | 18 | 225 | 4.8 | 9.7 | 0.00 | 0.00 | 0.00 | 37 | 1011.7 |
| 20260501194010 | 18 | 233 | 3.2 | 11.3 | 0.00 | 0.00 | 0.00 | 37 | 1011.6 |
| 20260501193506 | 18 | 159 | 3.2 | 11.3 | 0.00 | 0.00 | 0.00 | 36 | 1011.9 |
| 20260501193030 | 18 | 232 | 1.6 | 11.3 | 0.00 | 0.00 | 0.00 | 36 | 1011.9 |
| 20260501192509 | 18 | 210 | 1.6 | 6.4 | 0.00 | 0.00 | 0.00 | 35 | 1012.0 |
| 20260501192008 | 18 | 179 | 3.2 | 12.9 | 0.00 | 0.00 | 0.00 | 36 | 1012.0 |
| 20260501191515 | 18 | 241 | 1.6 | 14.5 | 0.00 | 0.00 | 0.00 | 38 | 1012.1 |
| 20260501191004 | 18 | 257 | 4.8 | 14.5 | 0.00 | 0.00 | 0.00 | 36 | 1012.1 |
| 20260501190506 | 18 | 219 | 3.2 | 9.7 | 0.00 | 0.00 | 0.00 | 34 | 1012.3 |
| 20260501190003 | 18 | 223 | 1.6 | 9.7 | 0.00 | 0.00 | 0.00 | 35 | 1012.3 |
| 20260501185504 | 17 | 147 | 3.2 | 16.1 | 0.00 | 0.00 | 0.00 | 33 | 1012.3 |
| 20260501185002 | 17 | 146 | 6.4 | 16.1 | 0.00 | 0.00 | 0.00 | 34 | 1012.5 |
| 20260501184504 | 17 | 241 | 3.2 | 11.3 | 0.00 | 0.00 | 0.00 | 33 | 1012.5 |
| 20260501184006 | 17 | 238 | 4.8 | 9.7 | 0.00 | 0.00 | 0.00 | 30 | 1012.5 |
| 20260501183508 | 17 | 225 | 3.2 | 11.3 | 0.00 | 0.00 | 0.00 | 33 | 1012.7 |
| 20260501183010 | 18 | 233 | 4.8 | 11.3 | 0.00 | 0.00 | 0.00 | 37 | 1012.9 |
| 20260501182505 | 17 | 217 | 4.8 | 9.7 | 0.00 | 0.00 | 0.00 | 36 | 1012.9 |
| 20260501182008 | 18 | 169 | 1.6 | 8.0 | 0.00 | 0.00 | 0.00 | 39 | 1012.9 |
| 20260501181520 | 17 | 260 | 1.6 | 6.4 | 0.00 | 0.00 | 0.00 | 39 | 1013.0 |
| 20260501181007 | 17 | 226 | 1.6 | 6.4 | 0.00 | 0.00 | 0.00 | 40 | 1013.0 |
| 20260501180508 | 17 | 240 | 1.6 | 8.0 | 0.00 | 0.00 | 0.00 | 44 | 1013.2 |
| 20260501180004 | 17 | 272 | 3.2 | 9.7 | 0.00 | 0.00 | 0.00 | 38 | 1013.2 |
| 20260501175504 | 16 | 224 | 3.2 | 9.7 | 0.00 | 0.00 | 0.00 | 40 | 1013.1 |
| 20260501175003 | 17 | 236 | 4.8 | 8.0 | 0.00 | 0.00 | 0.00 | 40 | 1013.2 |
| 20260501174503 | 17 | 227 | 3.2 | 6.4 | 0.00 | 0.00 | 0.00 | 39 | 1013.2 |
| 20260501174004 | 17 | 253 | 3.2 | 6.4 | 0.00 | 0.00 | 0.00 | 36 | 1013.4 |
| 20260501173506 | 17 | 238 | 1.6 | 9.7 | 0.00 | 0.00 | 0.00 | 37 | 1013.4 |
| 20260501173006 | 17 | 168 | 1.6 | 8.0 | 0.00 | 0.00 | 0.00 | 38 | 1013.5 |
| 20260501172506 | 16 | 215 | 1.6 | 14.5 | 0.00 | 0.00 | 0.00 | 38 | 1013.5 |
| 20260501172010 | 16 | 219 | 3.2 | 14.5 | 0.00 | 0.00 | 0.00 | 38 | 1013.6 |
| 20260501171516 | 17 | 246 | 3.2 | 9.7 | 0.00 | 0.00 | 0.00 | 40 | 1013.6 |
| 20260501171010 | 17 | 255 | 1.6 | 9.7 | 0.00 | 0.00 | 0.00 | 36 | 1013.6 |
| 20260501170510 | 17 | 242 | 3.2 | 9.7 | 0.00 | 0.00 | 0.00 | 38 | 1013.7 |
| 20260501170018 | 15 | 350 | 3.2 | 6.4 | 0.00 | 0.00 | 0.00 | 39 | 1013.7 |
| 20260501165508 | 16 | 239 | 3.2 | 6.4 | 0.00 | 0.00 | 0.00 | 40 | 1013.7 |
| 20260501165011 | 16 | 239 | 1.6 | 8.0 | 0.00 | 0.00 | 0.00 | 38 | 1013.7 |
| 20260501164504 | 16 | 234 | 1.6 | 8.0 | 0.00 | 0.00 | 0.00 | 40 | 1013.9 |
| 20260501164003 | 16 | 251 | 1.6 | 6.4 | 0.00 | 0.00 | 0.00 | 40 | 1013.9 |
| 20260501163504 | 16 | 327 | 1.6 | 6.4 | 0.00 | 0.00 | 0.00 | 41 | 1013.9 |
| 20260501163008 | 16 | 192 | 1.6 | 12.9 | 0.00 | 0.00 | 0.00 | 43 | 1013.9 |
| 20260501162503 | 16 | 15 | 1.6 | 12.9 | 0.00 | 0.00 | 0.00 | 42 | 1014.0 |
| 20260501162006 | 15 | 226 | 3.2 | 12.9 | 0.00 | 0.00 | 0.00 | 43 | 1014.0 |
| 20260501161511 | 16 | 136 | 3.2 | 6.4 | 0.00 | 0.00 | 0.00 | 46 | 1014.1 |
| 20260501161008 | 16 | 239 | 3.2 | 6.4 | 0.00 | 0.00 | 0.00 | 45 | 1014.1 |
| 20260501160507 | 16 | 325 | 1.6 | 9.7 | 0.00 | 0.00 | 0.00 | 46 | 1014.2 |
| 20260501160018 | 15 | 186 | 0.0 | 9.7 | 0.00 | 0.00 | 0.00 | 46 | 1014.3 |
| 20260501155509 | 15 | 177 | 3.2 | 8.0 | 0.00 | 0.00 | 0.00 | 44 | 1014.4 |
| 20260501155009 | 15 | 260 | 1.6 | 4.8 | 0.00 | 0.00 | 0.00 | 45 | 1014.4 |
| 20260501154521 | 15 | 221 | 1.6 | 9.7 | 0.00 | 0.00 | 0.00 | 48 | 1014.5 |
| 20260501154012 | 15 | 197 | 1.6 | 9.7 | 0.00 | 0.00 | 0.00 | 45 | 1014.5 |
| 20260501153509 | 15 | 297 | 0.0 | 8.0 | 0.00 | 0.00 | 0.00 | 50 | 1014.6 |
| 20260501153005 | 15 | 179 | 1.6 | 8.0 | 0.00 | 0.00 | 0.00 | 46 | 1014.8 |
| 20260501152503 | 15 | 190 | 0.0 | 9.7 | 0.00 | 0.00 | 0.00 | 50 | 1014.7 |
| 20260501152004 | 15 | 161 | 3.2 | 9.7 | 0.00 | 0.00 | 0.00 | 47 | 1014.7 |
| 20260501151507 | 14 | 173 | 0.0 | 4.8 | 0.00 | 0.00 | 0.00 | 50 | 1014.9 |
| 20260501151006 | 13 | 229 | 0.0 | 4.8 | 0.00 | 0.00 | 0.00 | 44 | 1014.9 |
| 20260501150504 | 13 | 336 | 1.6 | 8.0 | 0.00 | 0.00 | 0.00 | 43 | 1015.0 |
| 20260501150017 | 13 | 232 | 1.6 | 8.0 | 0.00 | 0.00 | 0.00 | 46 | 1015.0 |
| 20260501145507 | 13 | 50 | 3.2 | 6.4 | 0.00 | 0.00 | 0.00 | 45 | 1015.0 |
| 20260501145013 | 13 | 246 | 0.0 | 4.8 | 0.00 | 0.00 | 0.00 | 46 | 1015.0 |
| 20260501144523 | 13 | 216 | 1.6 | 4.8 | 0.00 | 0.00 | 0.00 | 45 | 1015.0 |
| 20260501144008 | 13 | 233 | 1.6 | 3.2 | 0.00 | 0.00 | 0.00 | 46 | 1015.0 |
| 20260501143507 | 13 | 217 | 1.6 | 6.4 | 0.00 | 0.00 | 0.00 | 48 | 1014.9 |
| 20260501143024 | 13 | 53 | 3.2 | 6.4 | 0.00 | 0.00 | 0.00 | 48 | 1015.0 |
| 20260501142510 | 13 | 217 | 1.6 | 6.4 | 0.00 | 0.00 | 0.00 | 48 | 1015.1 |
| 20260501142009 | 13 | 270 | 0.0 | 6.4 | 0.00 | 0.00 | 0.00 | 51 | 1015.1 |
| 20260501141507 | 12 | 222 | 1.6 | 3.2 | 0.00 | 0.00 | 0.00 | 50 | 1015.1 |
| 20260501141006 | 12 | 219 | 1.6 | 4.8 | 0.00 | 0.00 | 0.00 | 50 | 1015.1 |
| 20260501140508 | 12 | 304 | 3.2 | 6.4 | 0.00 | 0.00 | 0.00 | 51 | 1015.0 |